| time (UTC) | temp C | wind direction | speed KPH | gust KPH | rain 1hr cm | rain 24hr cm | rain mn cm | humidity % | barometer mb |
| 20260508195153 | 14 | 180 | 32.2 | 43.5 | 0.00 | 0.00 | 0.00 | 26 | 1003.0 |
| 20260508193612 | 14 | 248 | 22.5 | 38.6 | 0.00 | 0.00 | 0.00 | 29 | 1002.9 |
| 20260508193114 | 13 | 203 | 24.1 | 38.6 | 0.00 | 0.00 | 0.00 | 29 | 1002.8 |
| 20260508192600 | 14 | 180 | 27.4 | 40.2 | 0.00 | 0.00 | 0.00 | 27 | 1002.9 |
| 20260508192050 | 14 | 203 | 22.5 | 40.2 | 0.00 | 0.00 | 0.00 | 28 | 1002.8 |
| 20260508191541 | 13 | 203 | 29.0 | 40.2 | 0.00 | 0.00 | 0.00 | 27 | 1003.0 |
| 20260508191031 | 14 | 180 | 29.0 | 38.6 | 0.00 | 0.00 | 0.00 | 28 | 1003.1 |
| 20260508190515 | 13 | 225 | 20.9 | 35.4 | 0.00 | 0.00 | 0.00 | 31 | 1003.0 |
| 20260508190009 | 13 | 225 | 24.1 | 38.6 | 0.00 | 0.00 | 0.00 | 31 | 1003.1 |
| 20260508185457 | 13 | 225 | 27.4 | 43.5 | 0.00 | 0.00 | 0.00 | 30 | 1003.1 |
| 20260508184953 | 14 | 225 | 29.0 | 43.5 | 0.00 | 0.00 | 0.00 | 31 | 1003.1 |
| 20260508184431 | 13 | 203 | 20.9 | 40.2 | 0.00 | 0.00 | 0.00 | 32 | 1003.1 |
| 20260508184136 | 10 | 180 | 27.4 | 40.2 | 0.00 | 0.00 | 0.00 | 48 | 1005.7 |
| 20260508183936 | 13 | 203 | 24.1 | 40.2 | 0.00 | 0.00 | 0.00 | 34 | 1003.3 |
| 20260508183412 | 13 | 203 | 27.4 | 37.0 | 0.00 | 0.00 | 0.00 | 32 | 1003.3 |
| 20260508182907 | 13 | 203 | 17.7 | 33.8 | 0.00 | 0.00 | 0.00 | 33 | 1003.2 |
| 20260508181847 | 13 | 203 | 25.7 | 40.2 | 0.00 | 0.00 | 0.00 | 34 | 1003.4 |
| 20260508181331 | 14 | 225 | 25.7 | 43.5 | 0.00 | 0.00 | 0.00 | 33 | 1003.4 |
| 20260508180309 | 14 | 225 | 30.6 | 51.5 | 0.00 | 0.00 | 0.00 | 32 | 1003.5 |
| 20260508175254 | 13 | 203 | 27.4 | 40.2 | 0.00 | 0.00 | 0.00 | 35 | 1003.6 |
| 20260508174748 | 13 | 203 | 24.1 | 43.5 | 0.00 | 0.00 | 0.00 | 34 | 1003.5 |
| 20260508174234 | 14 | 203 | 27.4 | 43.5 | 0.00 | 0.00 | 0.00 | 34 | 1003.8 |
| 20260508173723 | 14 | 180 | 27.4 | 40.2 | 0.00 | 0.00 | 0.00 | 35 | 1003.8 |
| 20260508173515 | 10 | 203 | 29.0 | 49.9 | 0.00 | 0.00 | 0.00 | 51 | 1005.0 |
| 20260508173224 | 14 | 225 | 24.1 | 40.2 | 0.00 | 0.00 | 0.00 | 34 | 1003.7 |
| 20260508172706 | 14 | 225 | 27.4 | 38.6 | 0.00 | 0.00 | 0.00 | 34 | 1003.9 |
| 20260508172155 | 15 | 225 | 24.1 | 40.2 | 0.00 | 0.00 | 0.00 | 37 | 1003.7 |
| 20260508171653 | 14 | 203 | 27.4 | 49.9 | 0.00 | 0.00 | 0.00 | 36 | 1003.8 |
| 20260508171133 | 14 | 225 | 29.0 | 49.9 | 0.00 | 0.00 | 0.00 | 35 | 1003.8 |
| 20260508170630 | 14 | 203 | 25.7 | 40.2 | 0.00 | 0.00 | 0.00 | 36 | 1003.9 |
| 20260508170115 | 14 | 225 | 27.4 | 40.2 | 0.00 | 0.00 | 0.00 | 35 | 1004.0 |
| 20260508165605 | 14 | 225 | 25.7 | 35.4 | 0.00 | 0.00 | 0.00 | 35 | 1003.7 |
| 20260508165051 | 13 | 180 | 24.1 | 33.8 | 0.00 | 0.00 | 0.00 | 37 | 1004.1 |
| 20260508164546 | 14 | 203 | 16.1 | 37.0 | 0.00 | 0.00 | 0.00 | 37 | 1003.8 |
| 20260508164034 | 13 | 225 | 19.3 | 38.6 | 0.00 | 0.00 | 0.00 | 39 | 1004.2 |
| 20260508163521 | 13 | 203 | 24.1 | 38.6 | 0.00 | 0.00 | 0.00 | 38 | 1004.3 |
| 20260508162512 | 13 | 203 | 22.5 | 43.5 | 0.00 | 0.00 | 0.00 | 37 | 1004.4 |
| 20260508162424 | 7 | 203 | 24.1 | 33.8 | 0.00 | 0.00 | 0.00 | 62 | 1004.4 |
| 20260508161442 | 13 | 203 | 27.4 | 38.6 | 0.00 | 0.00 | 0.00 | 40 | 1004.5 |
| 20260508160426 | 13 | 225 | 24.1 | 32.2 | 0.00 | 0.00 | 0.00 | 40 | 1004.5 |
| 20260508155939 | 13 | 203 | 25.7 | 35.4 | 0.00 | 0.00 | 0.00 | 41 | 1004.7 |
| 20260508155406 | 12 | 180 | 24.1 | 35.4 | 0.00 | 0.00 | 0.00 | 43 | 1004.8 |
| 20260508155010 | 5 | 203 | 19.3 | 25.7 | 0.00 | 0.00 | 0.00 | 66 | 1004.4 |
| 20260508154855 | 12 | 203 | 24.1 | 43.5 | 0.00 | 0.00 | 0.00 | 42 | 1004.7 |
| 20260508153828 | 12 | 180 | 27.4 | 38.6 | 0.00 | 0.00 | 0.00 | 42 | 1004.9 |
| 20260508153328 | 12 | 203 | 27.4 | 38.6 | 0.00 | 0.00 | 0.00 | 42 | 1005.0 |
| 20260508152805 | 11 | 203 | 24.1 | 37.0 | 0.00 | 0.00 | 0.00 | 44 | 1005.0 |
| 20260508151752 | 11 | 248 | 25.7 | 40.2 | 0.00 | 0.00 | 0.00 | 44 | 1005.2 |
| 20260508151243 | 12 | 203 | 29.0 | 40.2 | 0.00 | 0.00 | 0.00 | 43 | 1005.2 |
| 20260508151042 | 5 | 225 | 17.7 | 25.7 | 0.00 | 0.00 | 0.00 | 68 | 1004.0 |
| 20260508150225 | 11 | 203 | 25.7 | 37.0 | 0.00 | 0.00 | 0.00 | 44 | 1005.3 |
| 20260508145717 | 12 | 180 | 27.4 | 43.5 | 0.00 | 0.00 | 0.00 | 43 | 1005.3 |
| 20260508145203 | 11 | 180 | 24.1 | 43.5 | 0.00 | 0.00 | 0.00 | 45 | 1005.3 |
| 20260508144648 | 11 | 180 | 30.6 | 40.2 | 0.00 | 0.00 | 0.00 | 43 | 1005.5 |
| 20260508143623 | 11 | 203 | 30.6 | 43.5 | 0.00 | 0.00 | 0.00 | 44 | 1005.6 |
| 20260508142718 | 5 | 203 | 17.7 | 25.7 | 0.00 | 0.00 | 0.00 | 70 | 1003.4 |
| 20260508142608 | 10 | 180 | 33.8 | 46.7 | 0.00 | 0.00 | 0.00 | 46 | 1005.6 |
| 20260508142059 | 10 | 203 | 27.4 | 43.5 | 0.00 | 0.00 | 0.00 | 47 | 1005.6 |
| 20260508141552 | 11 | 203 | 33.8 | 43.5 | 0.00 | 0.00 | 0.00 | 47 | 1005.6 |
| 20260508141046 | 10 | 203 | 30.6 | 43.5 | 0.00 | 0.00 | 0.00 | 48 | 1005.7 |
| 20260508140023 | 10 | 225 | 29.0 | 40.2 | 0.00 | 0.00 | 0.00 | 47 | 1005.8 |
| 20260508135505 | 10 | 203 | 24.1 | 40.2 | 0.00 | 0.00 | 0.00 | 49 | 1005.7 |
| 20260508135001 | 10 | 203 | 25.7 | 43.5 | 0.00 | 0.00 | 0.00 | 50 | 1005.7 |
| 20260508134443 | 10 | 180 | 27.4 | 43.5 | 0.00 | 0.00 | 0.00 | 49 | 1005.7 |
| 20260508133943 | 10 | 203 | 33.8 | 43.5 | 0.00 | 0.00 | 0.00 | 49 | 1005.5 |
| 20260508133427 | 10 | 203 | 25.7 | 43.5 | 0.00 | 0.00 | 0.00 | 50 | 1005.6 |
| 20260508132921 | 9 | 180 | 27.4 | 43.5 | 0.00 | 0.00 | 0.00 | 50 | 1005.4 |
| 20260508132406 | 9 | 180 | 27.4 | 43.5 | 0.00 | 0.00 | 0.00 | 50 | 1005.4 |
| 20260508131904 | 9 | 180 | 27.4 | 43.5 | 0.00 | 0.00 | 0.00 | 50 | 1005.2 |
| 20260508130839 | 9 | 225 | 30.6 | 40.2 | 0.00 | 0.00 | 0.00 | 50 | 1005.0 |
| 20260508130331 | 10 | 225 | 33.8 | 49.9 | 0.00 | 0.00 | 0.00 | 51 | 1004.9 |
| 20260508125306 | 9 | 203 | 24.1 | 40.2 | 0.00 | 0.00 | 0.00 | 52 | 1005.0 |
| 20260508124802 | 9 | 203 | 29.0 | 43.5 | 0.00 | 0.00 | 0.00 | 53 | 1005.0 |
| 20260508124242 | 9 | 203 | 32.2 | 43.5 | 0.00 | 0.00 | 0.00 | 52 | 1004.9 |
| 20260508123737 | 9 | 180 | 25.7 | 38.6 | 0.00 | 0.00 | 0.00 | 55 | 1004.6 |
| 20260508123225 | 8 | 203 | 25.7 | 40.2 | 0.00 | 0.00 | 0.00 | 55 | 1004.8 |
| 20260508122715 | 8 | 203 | 29.0 | 40.2 | 0.00 | 0.00 | 0.00 | 56 | 1004.7 |
| 20260508122206 | 8 | 203 | 24.1 | 40.2 | 0.00 | 0.00 | 0.00 | 57 | 1004.5 |
| 20260508121754 | 8 | 203 | 22.5 | 37.0 | 0.00 | 0.00 | 0.00 | 57 | 1004.6 |
| 20260508121139 | 8 | 203 | 24.1 | 37.0 | 0.00 | 0.00 | 0.00 | 58 | 1004.9 |
| 20260508120642 | 8 | 203 | 24.1 | 37.0 | 0.00 | 0.00 | 0.00 | 59 | 1004.7 |
| 20260508120353 | 5 | 203 | 20.9 | 32.2 | 0.00 | 0.00 | 0.00 | 71 | 1003.1 |
| 20260508120137 | 7 | 203 | 22.5 | 38.6 | 0.00 | 0.00 | 0.00 | 60 | 1004.6 |
| 20260508115620 | 7 | 203 | 22.5 | 38.6 | 0.00 | 0.00 | 0.00 | 60 | 1004.7 |
| 20260508115150 | 5 | 225 | 17.7 | 32.2 | 0.00 | 0.00 | 0.00 | 71 | 1003.1 |
| 20260508115106 | 7 | 203 | 24.1 | 33.8 | 0.00 | 0.00 | 0.00 | 61 | 1004.7 |
| 20260508114045 | 7 | 203 | 20.9 | 33.8 | 0.00 | 0.00 | 0.00 | 63 | 1004.3 |
| 20260508113027 | 6 | 203 | 20.9 | 32.2 | 0.00 | 0.00 | 0.00 | 64 | 1004.1 |
| 20260508112520 | 6 | 225 | 22.5 | 29.0 | 0.00 | 0.00 | 0.00 | 65 | 1004.4 |
| 20260508111503 | 6 | 203 | 20.9 | 27.4 | 0.00 | 0.00 | 0.00 | 66 | 1004.3 |
| 20260508110826 | 5 | 203 | 17.7 | 25.7 | 0.00 | 0.00 | 0.00 | 73 | 1003.2 |
| 20260508110437 | 5 | 225 | 17.7 | 25.7 | 0.00 | 0.00 | 0.00 | 67 | 1004.4 |
| 20260508105921 | 5 | 225 | 14.5 | 24.1 | 0.00 | 0.00 | 0.00 | 67 | 1004.3 |
| 20260508105527 | 5 | 203 | 17.7 | 25.7 | 0.00 | 0.00 | 0.00 | 73 | 1003.3 |
| 20260508105417 | 5 | 203 | 14.5 | 24.1 | 0.00 | 0.00 | 0.00 | 68 | 1004.3 |
| 20260508104905 | 5 | 203 | 16.1 | 24.1 | 0.00 | 0.00 | 0.00 | 68 | 1004.3 |
| 20260508104444 | 5 | 225 | 16.1 | 24.1 | 0.00 | 0.00 | 0.00 | 76 | 1003.1 |
| 20260508104353 | 5 | 203 | 16.1 | 22.5 | 0.00 | 0.00 | 0.00 | 68 | 1004.2 |
| 20260508103845 | 5 | 225 | 16.1 | 22.5 | 0.00 | 0.00 | 0.00 | 69 | 1004.0 |
| 20260508103337 | 5 | 203 | 17.7 | 25.7 | 0.00 | 0.00 | 0.00 | 68 | 1003.9 |
| 20260508102320 | 5 | 225 | 17.7 | 29.0 | 0.00 | 0.00 | 0.00 | 68 | 1004.0 |
| 20260508101924 | 4 | 203 | 17.7 | 22.5 | 0.00 | 0.00 | 0.00 | 77 | 1002.9 |
| 20260508101759 | 5 | 203 | 17.7 | 29.0 | 0.00 | 0.00 | 0.00 | 69 | 1003.8 |
| 20260508100735 | 5 | 203 | 14.5 | 25.7 | 0.00 | 0.00 | 0.00 | 70 | 1003.6 |
| 20260508100238 | 5 | 203 | 16.1 | 29.0 | 0.00 | 0.00 | 0.00 | 69 | 1003.5 |
| 20260508095723 | 5 | 225 | 17.7 | 29.0 | 0.00 | 0.00 | 0.00 | 69 | 1003.5 |
| 20260508095210 | 5 | 180 | 17.7 | 25.7 | 0.00 | 0.00 | 0.00 | 69 | 1003.4 |
| 20260508094156 | 5 | 203 | 17.7 | 27.4 | 0.00 | 0.00 | 0.00 | 70 | 1003.6 |
| 20260508093641 | 5 | 203 | 20.9 | 29.0 | 0.00 | 0.00 | 0.00 | 70 | 1003.3 |
| 20260508093134 | 5 | 203 | 17.7 | 29.0 | 0.00 | 0.00 | 0.00 | 70 | 1003.5 |
| 20260508092615 | 5 | 225 | 17.7 | 24.1 | 0.00 | 0.00 | 0.00 | 70 | 1003.5 |
| 20260508092113 | 5 | 225 | 16.1 | 27.4 | 0.00 | 0.00 | 0.00 | 71 | 1003.5 |
| 20260508091602 | 5 | 225 | 16.1 | 27.4 | 0.00 | 0.00 | 0.00 | 71 | 1003.5 |
| 20260508091049 | 5 | 180 | 20.9 | 27.4 | 0.00 | 0.00 | 0.00 | 70 | 1003.4 |
| 20260508090540 | 5 | 180 | 17.7 | 27.4 | 0.00 | 0.00 | 0.00 | 71 | 1003.5 |
| 20260508090035 | 5 | 180 | 19.3 | 29.0 | 0.00 | 0.00 | 0.00 | 70 | 1003.5 |
| 20260508085527 | 5 | 203 | 17.7 | 29.0 | 0.00 | 0.00 | 0.00 | 71 | 1003.4 |
| 20260508085016 | 5 | 203 | 17.7 | 29.0 | 0.00 | 0.00 | 0.00 | 71 | 1003.2 |
| 20260508084456 | 5 | 225 | 19.3 | 32.2 | 0.00 | 0.00 | 0.00 | 71 | 1003.3 |
| 20260508082415 | 5 | 203 | 17.7 | 27.4 | 0.00 | 0.00 | 0.00 | 72 | 1003.1 |
| 20260508081910 | 5 | 225 | 19.3 | 25.7 | 0.00 | 0.00 | 0.00 | 72 | 1003.1 |
| 20260508080158 | 5 | 248 | 8.0 | 17.7 | 0.00 | 0.00 | 0.00 | 79 | 1003.5 |
| 20260508075832 | 5 | 225 | 17.7 | 24.1 | 0.00 | 0.00 | 0.00 | 75 | 1003.2 |
| 20260508074812 | 4 | 203 | 16.1 | 22.5 | 0.00 | 0.00 | 0.00 | 79 | 1003.0 |
| 20260508074258 | 4 | 225 | 12.9 | 17.7 | 0.00 | 0.00 | 0.00 | 80 | 1003.0 |
| 20260508073913 | 5 | 203 | 11.3 | 17.7 | 0.00 | 0.00 | 0.00 | 76 | 1003.5 |
| 20260508073232 | 4 | 225 | 12.9 | 17.7 | 0.00 | 0.00 | 0.00 | 80 | 1002.9 |
| 20260508072731 | 4 | 225 | 11.3 | 17.7 | 0.00 | 0.00 | 0.00 | 81 | 1003.1 |
| 20260508072214 | 4 | 248 | 12.9 | 17.7 | 0.00 | 0.00 | 0.00 | 81 | 1003.3 |
| 20260508071811 | 5 | 225 | 12.9 | 17.7 | 0.00 | 0.00 | 0.00 | 76 | 1003.5 |
| 20260508071709 | 4 | 225 | 11.3 | 17.7 | 0.00 | 0.00 | 0.00 | 81 | 1003.5 |
| 20260508070645 | 4 | 225 | 12.9 | 17.7 | 0.00 | 0.00 | 0.00 | 80 | 1003.5 |
| 20260508070131 | 4 | 225 | 9.7 | 14.5 | 0.00 | 0.00 | 0.00 | 80 | 1003.4 |
| 20260508065117 | 5 | 248 | 12.9 | 17.7 | 0.00 | 0.00 | 0.00 | 77 | 1003.4 |
| 20260508064048 | 5 | 225 | 11.3 | 17.7 | 0.00 | 0.00 | 0.00 | 77 | 1003.3 |
| 20260508063034 | 5 | 203 | 12.9 | 17.7 | 0.00 | 0.00 | 0.00 | 75 | 1003.5 |
| 20260508062539 | 5 | 225 | 12.9 | 20.9 | 0.00 | 0.00 | 0.00 | 76 | 1003.4 |
| 20260508062017 | 6 | 225 | 12.9 | 20.9 | 0.00 | 0.00 | 0.00 | 75 | 1003.6 |
| 20260508061509 | 6 | 225 | 11.3 | 20.9 | 0.00 | 0.00 | 0.00 | 75 | 1003.5 |
| 20260508060959 | 6 | 203 | 12.9 | 20.9 | 0.00 | 0.00 | 0.00 | 75 | 1003.5 |
| 20260508060437 | 6 | 225 | 12.9 | 17.7 | 0.00 | 0.00 | 0.00 | 74 | 1003.4 |
| 20260508060209 | 6 | 203 | 12.9 | 0.0 | 0.00 | 0.00 | 0.00 | 75 | 1003.4 |
| 20260508055102 | 6 | 203 | 12.9 | 17.7 | 0.00 | 0.00 | 0.00 | 74 | 1003.4 |
| 20260508054550 | 6 | 203 | 12.9 | 17.7 | 0.00 | 0.00 | 0.00 | 74 | 1003.7 |
| 20260508054043 | 6 | 203 | 12.9 | 17.7 | 0.00 | 0.00 | 0.00 | 74 | 1003.6 |
| 20260508053527 | 7 | 225 | 12.9 | 22.5 | 0.00 | 0.00 | 0.00 | 74 | 1003.5 |
| 20260508053027 | 7 | 203 | 12.9 | 24.1 | 0.00 | 0.00 | 0.00 | 74 | 1003.4 |
| 20260508052518 | 7 | 203 | 14.5 | 24.1 | 0.00 | 0.00 | 0.00 | 73 | 1003.6 |
| 20260508051447 | 7 | 225 | 16.1 | 22.5 | 0.00 | 0.00 | 0.00 | 74 | 1003.6 |
| 20260508050950 | 7 | 225 | 16.1 | 24.1 | 0.00 | 0.00 | 0.00 | 74 | 1003.7 |
| 20260508045922 | 7 | 203 | 14.5 | 25.7 | 0.00 | 0.00 | 0.00 | 75 | 1003.4 |
| 20260508045407 | 7 | 203 | 17.7 | 22.5 | 0.00 | 0.00 | 0.00 | 77 | 1003.4 |
| 20260508044900 | 7 | 203 | 12.9 | 20.9 | 0.00 | 0.00 | 0.00 | 80 | 1003.4 |
| 20260508044345 | 6 | 225 | 12.9 | 20.9 | 0.00 | 0.00 | 0.00 | 82 | 1003.4 |
| 20260508043326 | 6 | 225 | 12.9 | 20.9 | 0.00 | 0.00 | 0.00 | 83 | 1003.5 |
| 20260508042817 | 6 | 180 | 12.9 | 17.7 | 0.00 | 0.00 | 0.00 | 83 | 1003.6 |
| 20260508042307 | 6 | 203 | 11.3 | 17.7 | 0.00 | 0.00 | 0.00 | 83 | 1003.2 |
| 20260508041802 | 6 | 225 | 12.9 | 17.7 | 0.00 | 0.00 | 0.00 | 82 | 1003.3 |
| 20260508040740 | 6 | 225 | 11.3 | 17.7 | 0.00 | 0.00 | 0.00 | 83 | 1003.3 |
| 20260508040227 | 6 | 225 | 12.9 | 17.7 | 0.00 | 0.00 | 0.00 | 83 | 1003.3 |
| 20260508035736 | 6 | 225 | 12.9 | 17.7 | 0.00 | 0.00 | 0.00 | 83 | 1003.3 |
| 20260508035203 | 6 | 225 | 12.9 | 17.7 | 0.00 | 0.00 | 0.00 | 83 | 1003.3 |
| 20260508034146 | 6 | 225 | 12.9 | 17.7 | 0.00 | 0.00 | 0.00 | 83 | 1003.2 |
| 20260508033639 | 6 | 225 | 12.9 | 17.7 | 0.00 | 0.00 | 0.00 | 84 | 1003.2 |
| 20260508033128 | 6 | 225 | 11.3 | 17.7 | 0.00 | 0.00 | 0.00 | 85 | 1003.3 |
| 20260508032931 | 7 | 203 | 6.4 | 9.7 | 0.00 | 0.00 | 0.13 | 81 | 1002.5 |
| 20260508032616 | 6 | 225 | 9.7 | 14.5 | 0.00 | 0.00 | 0.00 | 85 | 1003.3 |
| 20260508030842 | 8 | 225 | 6.4 | 11.3 | 0.00 | 0.00 | 0.13 | 80 | 1002.4 |
| 20260508030544 | 6 | 203 | 12.9 | 17.7 | 0.00 | 0.00 | 0.00 | 84 | 1002.7 |
| 20260508030022 | 6 | 203 | 9.7 | 14.5 | 0.00 | 0.00 | 0.00 | 85 | 1002.8 |
| 20260508025526 | 6 | 203 | 9.7 | 14.5 | 0.00 | 0.00 | 0.13 | 85 | 1002.7 |
| 20260508025003 | 6 | 203 | 9.7 | 12.9 | 0.00 | 0.00 | 0.13 | 86 | 1002.6 |
| 20260508024458 | 6 | 225 | 6.4 | 9.7 | 0.00 | 0.00 | 0.13 | 86 | 1002.6 |
| 20260508023941 | 5 | 203 | 6.4 | 6.4 | 0.00 | 0.00 | 0.13 | 86 | 1002.6 |
| 20260508023433 | 5 | 203 | 6.4 | 6.4 | 0.00 | 0.00 | 0.13 | 86 | 1002.6 |
| 20260508023322 | 9 | 203 | 8.0 | 14.5 | 0.00 | 0.00 | 0.13 | 75 | 1002.4 |
| 20260508022922 | 5 | 203 | 4.8 | 6.4 | 0.00 | 0.00 | 0.13 | 86 | 1002.3 |
| 20260508022419 | 5 | 203 | 3.2 | 6.4 | 0.00 | 0.00 | 0.13 | 85 | 1002.3 |
| 20260508021900 | 6 | 225 | 3.2 | 6.4 | 0.00 | 0.00 | 0.13 | 85 | 1002.4 |
| 20260508021400 | 6 | 203 | 3.2 | 9.7 | 0.00 | 0.00 | 0.13 | 84 | 1002.3 |
| 20260508020841 | 7 | 225 | 4.8 | 9.7 | 0.00 | 0.00 | 0.13 | 83 | 1002.3 |
| 20260508020341 | 7 | 225 | 6.4 | 11.3 | 0.00 | 0.00 | 0.13 | 82 | 1002.3 |
| 20260508015819 | 7 | 203 | 6.4 | 11.3 | 0.00 | 0.00 | 0.13 | 81 | 1002.2 |
| 20260508014254 | 9 | 203 | 6.4 | 12.9 | 0.00 | 0.00 | 0.13 | 77 | 1002.3 |
| 20260508012514 | 11 | 225 | 12.9 | 17.7 | 0.00 | 0.00 | 0.13 | 70 | 1002.4 |
| 20260508012211 | 10 | 203 | 9.7 | 17.7 | 0.00 | 0.00 | 0.13 | 73 | 1002.4 |
| 20260508011706 | 10 | 203 | 12.9 | 17.7 | 0.00 | 0.00 | 0.13 | 72 | 1002.4 |
| 20260508010134 | 11 | 225 | 11.3 | 17.7 | 0.00 | 0.00 | 0.13 | 69 | 1002.4 |
| 20260508005616 | 12 | 180 | 12.9 | 17.7 | 0.00 | 0.00 | 0.13 | 68 | 1002.6 |
| 20260508002151 | 12 | 180 | 14.5 | 20.9 | 0.00 | 0.00 | 0.13 | 66 | 1002.5 |
| 20260508001643 | 12 | 180 | 12.9 | 20.9 | 0.00 | 0.00 | 0.13 | 66 | 1002.5 |
| 20260508001141 | 12 | 180 | 12.9 | 22.5 | 0.00 | 0.00 | 0.13 | 64 | 1002.5 |
| 20260508000619 | 12 | 203 | 14.5 | 24.1 | 0.00 | 0.00 | 0.13 | 63 | 1002.7 |
| 20260508000127 | 12 | 203 | 14.5 | 24.1 | 0.00 | 0.00 | 0.13 | 63 | 1002.4 |
| 20260507235555 | 12 | 203 | 12.9 | 22.5 | 0.00 | 0.00 | 0.13 | 63 | 1002.5 |
| 20260507235058 | 12 | 203 | 14.5 | 24.1 | 0.00 | 0.00 | 0.13 | 63 | 1002.5 |
| 20260507234533 | 13 | 203 | 12.9 | 24.1 | 0.00 | 0.00 | 0.13 | 63 | 1002.5 |
| 20260507233519 | 12 | 203 | 14.5 | 20.9 | 0.00 | 0.00 | 0.13 | 63 | 1002.7 |
| 20260507233232 | 14 | 180 | 17.7 | 32.2 | 0.00 | 0.00 | 0.13 | 58 | 1001.5 |
| 20260507233009 | 12 | 203 | 12.9 | 17.7 | 0.00 | 0.00 | 0.13 | 65 | 1002.8 |
| 20260507232510 | 12 | 203 | 12.9 | 17.7 | 0.00 | 0.00 | 0.13 | 65 | 1002.6 |
| 20260507231948 | 11 | 203 | 11.3 | 14.5 | 0.00 | 0.00 | 0.13 | 67 | 1002.5 |
| 20260507231001 | 11 | 203 | 6.4 | 11.3 | 0.00 | 0.00 | 0.13 | 68 | 1002.5 |
| 20260507230430 | 12 | 203 | 6.4 | 11.3 | 0.00 | 0.00 | 0.13 | 67 | 1002.4 |
| 20260507225916 | 12 | 203 | 6.4 | 14.5 | 0.00 | 0.00 | 0.13 | 66 | 1002.1 |
| 20260507225406 | 12 | 203 | 8.0 | 20.9 | 0.00 | 0.00 | 0.13 | 65 | 1002.4 |
| 20260507224337 | 13 | 203 | 12.9 | 22.5 | 0.00 | 0.00 | 0.13 | 62 | 1002.2 |
| 20260507223833 | 13 | 180 | 16.1 | 22.5 | 0.00 | 0.00 | 0.13 | 60 | 1002.1 |
| 20260507223317 | 13 | 203 | 14.5 | 25.7 | 0.00 | 0.00 | 0.13 | 60 | 1002.0 |
| 20260507222827 | 13 | 180 | 14.5 | 25.7 | 0.00 | 0.00 | 0.13 | 61 | 1001.9 |
| 20260507221748 | 14 | 180 | 17.7 | 25.7 | 0.00 | 0.00 | 0.13 | 60 | 1001.7 |
| 20260507221237 | 14 | 203 | 17.7 | 25.7 | 0.00 | 0.00 | 0.13 | 58 | 1001.5 |
| 20260507220212 | 14 | 158 | 17.7 | 32.2 | 0.00 | 0.00 | 0.13 | 58 | 1001.5 |
| 20260507215713 | 14 | 180 | 17.7 | 35.4 | 0.00 | 0.00 | 0.13 | 58 | 1001.0 |
| 20260507215149 | 14 | 158 | 19.3 | 35.4 | 0.00 | 0.00 | 0.13 | 57 | 1000.9 |
| 20260507214646 | 14 | 203 | 16.1 | 29.0 | 0.00 | 0.00 | 0.13 | 59 | 1000.8 |
| 20260507214134 | 14 | 203 | 20.9 | 32.2 | 0.00 | 0.00 | 0.13 | 58 | 1000.6 |
| 20260507213625 | 14 | 203 | 19.3 | 32.2 | 0.00 | 0.00 | 0.13 | 59 | 1000.5 |
| 20260507213123 | 14 | 203 | 17.7 | 24.1 | 0.00 | 0.00 | 0.13 | 59 | 1000.4 |
| 20260507212611 | 14 | 158 | 12.9 | 27.4 | 0.00 | 0.00 | 0.13 | 60 | 1000.4 |
| 20260507212049 | 15 | 203 | 14.5 | 27.4 | 0.00 | 0.00 | 0.13 | 59 | 1000.4 |
| 20260507211831 | 15 | 225 | 17.7 | 24.1 | 0.00 | 0.00 | 0.13 | 59 | 1000.2 |
| 20260507202026 | 15 | 203 | 20.9 | 38.6 | 0.00 | 0.00 | 0.13 | 58 | 1000.7 |
| 20260507201521 | 15 | 203 | 19.3 | 40.2 | 0.00 | 0.00 | 0.13 | 57 | 1000.6 |
| 20260507201006 | 15 | 203 | 24.1 | 43.5 | 0.00 | 0.00 | 0.13 | 57 | 1000.7 |
| 20260507200459 | 15 | 180 | 25.7 | 43.5 | 0.00 | 0.00 | 0.13 | 57 | 1000.6 |
| 20260507195444 | 15 | 180 | 33.8 | 43.5 | 0.00 | 0.00 | 0.13 | 55 | 1000.2 |